Location: Ku?niki
(51.4449°N, 17.8974°E)
Time: 06:48:11
(UTC+00:00)

Cosmos 1805 - Pass Details

Date: 18 September 2020
Orbit: 524 x 531 km, 82.5° (Epoch: 21 October)

Event Time Altitude Azimuth Distance (km) Brightness Sun altitude
Exits shadow 19:00:04 53° 96° (E) 658 3.3 -19.4°
Maximum altitude 19:00:05 53° 96° (E) 658 3.3 -19.4°
Drops below altitude 10° 19:03:56 10° 19° (NNE) 1,794 6.1 -19.9°
Sets 19:06:07 0° 15° (NNE) 2,691 7.0 -20.2°
